Time,TemperatureF,DewpointF,PressureIn,WindDirection,WindDirectionDegrees,WindSpeedMPH,WindSpeedGustMPH,Humidity,HourlyPrecipIn,Conditions,Clouds,dailyrainin,SoftwareType,DateUTC
2013-03-03 00:00:00,39.6,12.1,29.12,SE,136,3.0,8.0,32,0.00,CLR,FEW,0.00,WeatherDisplay:10.37,2013-03-03 06:00:00,
2013-03-03 00:05:00,39.7,12.2,29.12,SE,139,5.0,6.0,32,0.00,CLR,FEW,0.00,WeatherDisplay:10.37,2013-03-03 06:05:00,
2013-03-03 00:10:00,40.8,13.9,29.12,ENE,69,3.0,7.0,33,0.00,CLR,FEW,0.00,WeatherDisplay:10.37,2013-03-03 06:10:00,
2013-03-03 00:15:00,38.5,9.7,29.12,ENE,68,6.0,8.0,30,0.00,CLR,FEW,0.00,WeatherDisplay:10.37,2013-03-03 06:15:00,
2013-03-03 00:20:00,38.3,9.5,29.12,East,97,6.0,6.0,30,0.00,CLR,FEW,0.00,WeatherDisplay:10.37,2013-03-03 06:20:00,
2013-03-03 00:25:00,38.7,9.8,29.12,SE,141,3.0,6.0,30,0.00,CLR,FEW,0.00,WeatherDisplay:10.37,2013-03-03 06:25:00,
2013-03-03 00:30:00,40.1,11.8,29.12,SE,130,3.0,6.0,31,0.00,CLR,FEW,0.00,WeatherDisplay:10.37,2013-03-03 06:30:00,
2013-03-03 00:35:00,39.9,10.9,29.09,SE,137,6.0,7.0,30,0.00,CLR,FEW,0.00,WeatherDisplay:10.37,2013-03-03 06:35:00,
2013-03-03 00:40:00,40.1,11.1,29.09,ESE,103,3.0,10.0,30,0.00,CLR,FEW,0.00,WeatherDisplay:10.37,2013-03-03 06:40:00,
2013-03-03 00:45:00,39.9,10.9,29.09,East,89,3.0,8.0,30,0.00,CLR,FEW,0.00,WeatherDisplay:10.37,2013-03-03 06:45:00,
2013-03-03 00:50:00,39.6,10.6,29.06,WNW,292,3.0,4.0,30,0.00,CLR,FEW,0.00,WeatherDisplay:10.37,2013-03-03 06:50:00,
2013-03-03 00:55:00,39.4,10.5,29.06,NNW,337,2.0,7.0,30,0.00,CLR,FEW,0.00,WeatherDisplay:10.37,2013-03-03 06:55:00,
2013-03-03 01:00:00,39.4,10.5,29.06,NE,49,5.0,7.0,30,0.00,CLR,FEW,0.00,WeatherDisplay:10.37,2013-03-03 07:00:00,
2013-03-03 01:05:00,41.5,12.4,29.06,East,96,2.0,7.0,30,0.00,CLR,FEW,0.00,WeatherDisplay:10.37,2013-03-03 07:05:00,
2013-03-03 01:10:00,41.7,12.5,29.06,ENE,66,2.0,6.0,30,0.00,CLR,FEW,0.00,WeatherDisplay:10.37,2013-03-03 07:10:00,
2013-03-03 01:15:00,41.0,11.1,29.06,East,79,5.0,10.0,29,0.00,CLR,FEW,0.00,WeatherDisplay:10.37,2013-03-03 07:15:00,
2013-03-03 01:20:00,40.3,10.5,29.09,East,90,6.0,7.0,29,0.00,CLR,FEW,0.00,WeatherDisplay:10.37,2013-03-03 07:20:00,
2013-03-03 01:25:00,40.8,11.0,29.09,ESE,121,5.0,10.0,29,0.00,CLR,FEW,0.00,WeatherDisplay:10.37,2013-03-03 07:25:00,
2013-03-03 01:30:00,39.7,9.2,29.09,SE,144,3.0,8.0,28,0.00,CLR,FEW,0.00,WeatherDisplay:10.37,2013-03-03 07:30:00,
2013-03-03 01:35:00,39.4,9.7,29.09,SE,144,6.0,13.0,29,0.00,CLR,FEW,0.00,WeatherDisplay:10.37,2013-03-03 07:35:00,
2013-03-03 01:40:00,38.5,8.9,29.09,SE,136,6.0,12.0,29,0.00,CLR,FEW,0.00,WeatherDisplay:10.37,2013-03-03 07:40:00,
2013-03-03 01:45:00,37.6,8.1,29.09,SE,143,6.0,10.0,29,0.00,CLR,FEW,0.00,WeatherDisplay:10.37,2013-03-03 07:45:00,
2013-03-03 01:50:00,37.0,8.4,29.09,SSE,154,5.0,14.0,30,0.00,CLR,FEW,0.00,WeatherDisplay:10.37,2013-03-03 07:50:00,
2013-03-03 01:55:00,37.2,8.6,29.09,SE,137,7.0,9.0,30,0.00,CLR,FEW,0.00,WeatherDisplay:10.37,2013-03-03 07:55:00,
2013-03-03 02:00:00,37.9,9.2,29.09,SE,131,6.0,10.0,30,0.00,CLR,FEW,0.00,WeatherDisplay:10.37,2013-03-03 08:00:00,
2013-03-03 02:05:00,37.9,9.9,29.09,SSE,164,2.0,7.0,31,0.00,CLR,FEW,0.00,WeatherDisplay:10.37,2013-03-03 08:05:00,
2013-03-03 02:10:00,38.1,10.1,29.09,SSW,208,3.0,8.0,31,0.00,CLR,FEW,0.00,WeatherDisplay:10.37,2013-03-03 08:10:00,
2013-03-03 02:15:00,38.7,9.8,29.09,ESE,121,3.0,6.0,30,0.00,CLR,FEW,0.00,WeatherDisplay:10.37,2013-03-03 08:15:00,
2013-03-03 02:20:00,38.3,10.3,29.09,ESE,116,3.0,6.0,31,0.00,CLR,FEW,0.00,WeatherDisplay:10.37,2013-03-03 08:20:00,
2013-03-03 02:25:00,38.1,10.1,29.09,SE,126,3.0,6.0,31,0.00,CLR,FEW,0.00,WeatherDisplay:10.37,2013-03-03 08:25:00,
2013-03-03 02:30:00,36.7,8.1,29.09,SSE,152,6.0,6.0,30,0.00,CLR,FEW,0.00,WeatherDisplay:10.37,2013-03-03 08:30:00,
2013-03-03 02:35:00,37.4,9.5,29.09,SE,141,3.0,7.0,31,0.00,CLR,FEW,0.00,WeatherDisplay:10.37,2013-03-03 08:35:00,
2013-03-03 02:40:00,38.1,10.1,29.09,NNE,25,3.0,4.0,31,0.00,CLR,FEW,0.00,WeatherDisplay:10.37,2013-03-03 08:40:00,
2013-03-03 02:45:00,38.5,9.7,29.09,North,8,7.0,7.0,30,0.00,CLR,FEW,0.00,WeatherDisplay:10.37,2013-03-03 08:45:00,
2013-03-03 02:50:00,38.7,9.8,29.06,East,82,5.0,9.0,30,0.00,CLR,FEW,0.00,WeatherDisplay:10.37,2013-03-03 08:50:00,
2013-03-03 02:55:00,39.4,9.7,29.06,ESE,113,5.0,6.0,29,0.00,CLR,FEW,0.00,WeatherDisplay:10.37,2013-03-03 08:55:00,
2013-03-03 03:00:00,38.5,9.7,29.06,ESE,113,5.0,10.0,30,0.00,CLR,FEW,0.00,WeatherDisplay:10.37,2013-03-03 09:00:00,
2013-03-03 03:05:00,38.3,10.3,29.06,ESE,109,2.0,11.0,31,0.00,CLR,FEW,0.00,WeatherDisplay:10.37,2013-03-03 09:05:00,
2013-03-03 03:10:00,38.5,9.7,29.06,South,169,3.0,6.0,30,0.00,CLR,FEW,0.00,WeatherDisplay:10.37,2013-03-03 09:10:00,
2013-03-03 03:15:00,37.0,8.4,29.06,ESE,119,8.0,8.0,30,0.00,CLR,FEW,0.00,WeatherDisplay:10.37,2013-03-03 09:15:00,
2013-03-03 03:20:00,36.9,9.0,29.06,East,96,3.0,7.0,31,0.00,CLR,FEW,0.00,WeatherDisplay:10.37,2013-03-03 09:20:00,
2013-03-03 03:25:00,36.3,7.8,29.06,SE,132,6.0,6.0,30,0.00,CLR,FEW,0.00,WeatherDisplay:10.37,2013-03-03 09:25:00,
2013-03-03 03:30:00,35.8,8.0,29.06,SE,142,6.0,13.0,31,0.00,CLR,FEW,0.00,WeatherDisplay:10.37,2013-03-03 09:30:00,
2013-03-03 03:35:00,36.0,8.9,29.06,SE,132,3.0,6.0,32,0.00,CLR,FEW,0.00,WeatherDisplay:10.37,2013-03-03 09:35:00,
2013-03-03 03:40:00,36.5,10.1,29.06,ENE,74,1.0,5.0,33,0.00,CLR,FEW,0.00,WeatherDisplay:10.37,2013-03-03 09:40:00,
2013-03-03 03:45:00,35.8,8.8,29.06,NE,41,3.0,4.0,32,0.00,CLR,FEW,0.00,WeatherDisplay:10.37,2013-03-03 09:45:00,
2013-03-03 03:50:00,35.4,9.8,29.06,NNW,338,2.0,4.0,34,0.00,CLR,FEW,0.00,WeatherDisplay:10.37,2013-03-03 09:50:00,
2013-03-03 03:55:00,35.2,10.3,29.06,WNW,293,2.0,2.0,35,0.00,CLR,FEW,0.00,WeatherDisplay:10.37,2013-03-03 09:55:00,
2013-03-03 04:00:00,34.5,9.0,29.06,WNW,300,7.0,7.0,34,0.00,CLR,FEW,0.00,WeatherDisplay:10.37,2013-03-03 10:00:00,
2013-03-03 04:05:00,34.3,8.8,29.06,NE,56,3.0,6.0,34,0.00,CLR,FEW,0.00,WeatherDisplay:10.37,2013-03-03 10:05:00,
2013-03-03 04:10:00,33.8,9.0,29.06,East,91,2.0,8.0,35,0.00,CLR,FEW,0.00,WeatherDisplay:10.37,2013-03-03 10:10:00,
2013-03-03 04:15:00,33.6,9.5,29.06,ENE,64,3.0,3.0,36,0.00,CLR,FEW,0.00,WeatherDisplay:10.37,2013-03-03 10:15:00,
2013-03-03 04:20:00,33.4,9.3,29.06,NE,52,2.0,4.0,36,0.00,CLR,FEW,0.00,WeatherDisplay:10.37,2013-03-03 10:20:00,
2013-03-03 04:25:00,33.1,9.0,29.06,NE,48,2.0,3.0,36,0.00,CLR,FEW,0.00,WeatherDisplay:10.37,2013-03-03 10:25:00,
2013-03-03 04:30:00,32.7,9.9,29.06,North,3,2.0,2.0,38,0.00,CLR,FEW,0.00,WeatherDisplay:10.37,2013-03-03 10:30:00,
2013-03-03 04:35:00,31.8,9.1,29.06,North,4,3.0,5.0,38,0.00,CLR,FEW,0.00,WeatherDisplay:10.37,2013-03-03 10:35:00,
2013-03-03 04:40:00,31.3,9.2,29.06,NW,325,3.0,5.0,39,0.00,CLR,FEW,0.00,WeatherDisplay:10.37,2013-03-03 10:40:00,
2013-03-03 04:45:00,30.7,9.2,29.06,NNW,341,2.0,9.0,40,0.00,CLR,FEW,0.00,WeatherDisplay:10.37,2013-03-03 10:45:00,
2013-03-03 04:50:00,30.4,8.9,29.06,NNE,17,0.0,3.0,40,0.00,CLR,FEW,0.00,WeatherDisplay:10.37,2013-03-03 10:50:00,
2013-03-03 04:55:00,29.8,9.0,29.06,NE,54,3.0,6.0,41,0.00,CLR,FEW,0.00,WeatherDisplay:10.37,2013-03-03 10:55:00,
2013-03-03 05:00:00,29.5,8.6,29.06,NNE,21,5.0,5.0,41,0.00,CLR,FEW,0.00,WeatherDisplay:10.37,2013-03-03 11:00:00,
2013-03-03 05:05:00,29.3,8.5,29.06,NE,49,3.0,4.0,41,0.00,CLR,FEW,0.00,WeatherDisplay:10.37,2013-03-03 11:05:00,
2013-03-03 05:10:00,28.8,8.0,29.06,ESE,109,1.0,4.0,41,0.00,CLR,FEW,0.00,WeatherDisplay:10.37,2013-03-03 11:10:00,
2013-03-03 05:15:00,28.6,8.4,29.06,ESE,111,3.0,5.0,42,0.00,CLR,FEW,0.00,WeatherDisplay:10.37,2013-03-03 11:15:00,
2013-03-03 05:20:00,28.6,8.4,29.06,NW,321,1.0,4.0,42,0.00,CLR,FEW,0.00,WeatherDisplay:10.37,2013-03-03 11:20:00,
2013-03-03 05:25:00,28.2,8.0,29.06,North,6,2.0,4.0,42,0.00,CLR,FEW,0.00,WeatherDisplay:10.37,2013-03-03 11:25:00,
2013-03-03 05:30:00,28.0,8.4,29.06,East,80,2.0,3.0,43,0.00,CLR,FEW,0.00,WeatherDisplay:10.37,2013-03-03 11:30:00,
2013-03-03 05:35:00,27.9,8.2,29.06,WNW,302,2.0,4.0,43,0.00,CLR,FEW,0.00,WeatherDisplay:10.37,2013-03-03 11:35:00,
2013-03-03 05:40:00,27.9,8.2,29.06,NNW,327,2.0,4.0,43,0.00,CLR,FEW,0.00,WeatherDisplay:10.37,2013-03-03 11:40:00,
2013-03-03 05:45:00,27.7,8.1,29.06,North,11,0.0,2.0,43,0.00,CLR,FEW,0.00,WeatherDisplay:10.37,2013-03-03 11:45:00,
2013-03-03 05:50:00,27.5,7.9,29.06,NNW,347,1.0,2.0,43,0.00,CLR,FEW,0.00,WeatherDisplay:10.37,2013-03-03 11:50:00,
2013-03-03 05:55:00,27.3,7.7,29.06,NW,313,1.0,2.0,43,0.00,CLR,FEW,0.00,WeatherDisplay:10.37,2013-03-03 11:55:00,
2013-03-03 06:00:00,27.1,7.6,29.06,NW,309,1.0,2.0,43,0.00,CLR,FEW,0.00,WeatherDisplay:10.37,2013-03-03 12:00:00,
2013-03-03 06:05:00,27.0,7.9,29.06,NW,320,2.0,2.0,44,0.00,CLR,FEW,0.00,WeatherDisplay:10.37,2013-03-03 12:05:00,
2013-03-03 06:10:00,27.0,7.9,29.06,West,271,1.0,3.0,44,0.00,CLR,FEW,0.00,WeatherDisplay:10.37,2013-03-03 12:10:00,
2013-03-03 06:15:00,27.0,7.9,29.06,SW,234,2.0,5.0,44,0.00,CLR,FEW,0.00,WeatherDisplay:10.37,2013-03-03 12:15:00,
2013-03-03 06:20:00,27.0,7.9,29.06,North,358,1.0,3.0,44,0.00,CLR,FEW,0.00,WeatherDisplay:10.37,2013-03-03 12:20:00,
2013-03-03 06:25:00,27.0,7.9,29.06,North,11,1.0,4.0,44,0.00,CLR,FEW,0.00,WeatherDisplay:10.37,2013-03-03 12:25:00,
2013-03-03 06:30:00,27.0,8.4,29.06,North,11,2.0,5.0,45,0.00,CLR,FEW,0.00,WeatherDisplay:10.37,2013-03-03 12:30:00,
2013-03-03 06:35:00,27.0,8.4,29.06,WNW,283,2.0,2.0,45,0.00,CLR,FEW,0.00,WeatherDisplay:10.37,2013-03-03 12:35:00,
2013-03-03 06:40:00,27.0,8.4,29.06,NNW,332,2.0,4.0,45,0.00,CLR,FEW,0.00,WeatherDisplay:10.37,2013-03-03 12:40:00,
2013-03-03 06:45:00,27.0,8.4,29.06,NW,320,2.0,4.0,45,0.00,CLR,FEW,0.00,WeatherDisplay:10.37,2013-03-03 12:45:00,
2013-03-03 06:50:00,27.0,8.4,29.06,WNW,290,2.0,6.0,45,0.00,CLR,FEW,0.00,WeatherDisplay:10.37,2013-03-03 12:50:00,
2013-03-03 06:55:00,27.1,8.6,29.06,NNW,340,2.0,5.0,45,0.00,CLR,FEW,0.00,WeatherDisplay:10.37,2013-03-03 12:55:00,
2013-03-03 07:00:00,27.1,8.6,29.06,NW,310,1.0,4.0,45,0.00,CLR,FEW,0.00,WeatherDisplay:10.37,2013-03-03 13:00:00,
2013-03-03 07:05:00,27.5,8.9,29.06,NW,310,2.0,6.0,45,0.00,CLR,FEW,0.00,WeatherDisplay:10.37,2013-03-03 13:05:00,
2013-03-03 07:10:00,27.5,8.9,29.06,NNW,341,3.0,4.0,45,0.00,CLR,FEW,0.00,WeatherDisplay:10.37,2013-03-03 13:10:00,
2013-03-03 07:15:00,27.7,9.1,29.06,North,355,3.0,3.0,45,0.00,CLR,FEW,0.00,WeatherDisplay:10.37,2013-03-03 13:15:00,
2013-03-03 07:20:00,27.7,8.6,29.06,NNW,334,3.0,3.0,44,0.00,CLR,FEW,0.00,WeatherDisplay:10.37,2013-03-03 13:20:00,
2013-03-03 07:25:00,27.9,8.7,29.06,NE,41,2.0,4.0,44,0.00,CLR,FEW,0.00,WeatherDisplay:10.37,2013-03-03 13:25:00,
2013-03-03 07:30:00,27.9,8.7,29.06,ESE,117,2.0,4.0,44,0.00,CLR,FEW,0.00,WeatherDisplay:10.37,2013-03-03 13:30:00,
2013-03-03 07:35:00,28.0,8.9,29.06,SE,129,3.0,4.0,44,0.00,CLR,FEW,0.00,WeatherDisplay:10.37,2013-03-03 13:35:00,
2013-03-03 07:40:00,28.0,8.9,29.06,SE,144,2.0,7.0,44,0.00,CLR,FEW,0.00,WeatherDisplay:10.37,2013-03-03 13:40:00,
2013-03-03 07:45:00,28.0,8.9,29.06,ESE,106,6.0,6.0,44,0.00,CLR,FEW,0.00,WeatherDisplay:10.37,2013-03-03 13:45:00,
2013-03-03 07:50:00,28.0,8.9,29.06,East,94,2.0,3.0,44,0.00,CLR,FEW,0.00,WeatherDisplay:10.37,2013-03-03 13:50:00,
2013-03-03 07:55:00,28.0,8.9,29.06,NE,53,2.0,2.0,44,0.00,CLR,FEW,0.00,WeatherDisplay:10.37,2013-03-03 13:55:00,
2013-03-03 08:00:00,27.9,8.7,29.06,North,6,2.0,4.0,44,0.00,CLR,FEW,0.00,WeatherDisplay:10.37,2013-03-03 14:00:00,
2013-03-03 08:05:00,27.9,9.2,29.06,North,354,1.0,2.0,45,0.00,CLR,FEW,0.00,WeatherDisplay:10.37,2013-03-03 14:05:00,
2013-03-03 08:10:00,27.7,9.1,29.06,NNW,344,0.0,2.0,45,0.00,CLR,FEW,0.00,WeatherDisplay:10.37,2013-03-03 14:10:00,
2013-03-03 08:15:00,27.7,9.1,29.06,NNW,341,2.0,4.0,45,0.00,CLR,FEW,0.00,WeatherDisplay:10.37,2013-03-03 14:15:00,
2013-03-03 08:20:00,27.5,8.9,29.06,North,357,1.0,4.0,45,0.00,CLR,FEW,0.00,WeatherDisplay:10.37,2013-03-03 14:20:00,
2013-03-03 08:25:00,27.5,8.9,29.06,NE,51,1.0,3.0,45,0.00,CLR,FEW,0.00,WeatherDisplay:10.37,2013-03-03 14:25:00,
2013-03-03 08:30:00,27.3,9.2,29.06,NNW,342,1.0,3.0,46,0.00,CLR,FEW,0.00,WeatherDisplay:10.37,2013-03-03 14:30:00,
2013-03-03 08:35:00,27.1,9.1,29.06,NNE,29,1.0,3.0,46,0.00,CLR,FEW,0.00,WeatherDisplay:10.37,2013-03-03 14:35:00,
2013-03-03 08:40:00,27.0,8.9,29.06,NE,38,1.0,2.0,46,0.00,CLR,FEW,0.00,WeatherDisplay:10.37,2013-03-03 14:40:00,
2013-03-03 08:45:00,27.0,8.9,29.06,North,9,1.0,6.0,46,0.00,CLR,FEW,0.00,WeatherDisplay:10.37,2013-03-03 14:45:00,
2013-03-03 08:50:00,27.0,8.9,29.06,NNW,345,1.0,3.0,46,0.00,CLR,FEW,0.00,WeatherDisplay:10.37,2013-03-03 14:50:00,
2013-03-03 08:55:00,27.0,8.9,29.06,NW,313,1.0,2.0,46,0.00,CLR,FEW,0.00,WeatherDisplay:10.37,2013-03-03 14:55:00,
2013-03-03 09:00:00,27.0,8.9,29.06,WNW,293,1.0,3.0,46,0.00,CLR,FEW,0.00,WeatherDisplay:10.37,2013-03-03 15:00:00,
2013-03-03 09:05:00,27.0,8.9,29.03,West,270,2.0,4.0,46,0.00,CLR,FEW,0.00,WeatherDisplay:10.37,2013-03-03 15:05:00,
2013-03-03 09:10:00,27.0,8.9,29.03,West,259,1.0,3.0,46,0.00,CLR,FEW,0.00,WeatherDisplay:10.37,2013-03-03 15:10:00,
2013-03-03 09:15:00,27.0,8.9,29.03,NE,49,5.0,7.0,46,0.00,CLR,FEW,0.00,WeatherDisplay:10.37,2013-03-03 15:15:00,
2013-03-03 09:20:00,27.0,8.9,29.00,ENE,74,2.0,6.0,46,0.00,CLR,FEW,0.00,WeatherDisplay:10.37,2013-03-03 15:20:00,
2013-03-03 09:25:00,27.1,9.1,29.00,ENE,76,1.0,6.0,46,0.00,CLR,FEW,0.00,WeatherDisplay:10.37,2013-03-03 15:25:00,
2013-03-03 09:30:00,27.1,9.1,29.00,NE,45,2.0,6.0,46,0.00,CLR,FEW,0.00,WeatherDisplay:10.37,2013-03-03 15:30:00,
2013-03-03 09:35:00,27.1,9.1,29.03,North,4,3.0,4.0,46,0.00,CLR,FEW,0.00,WeatherDisplay:10.37,2013-03-03 15:35:00,
2013-03-03 09:40:00,27.1,9.1,29.03,ENE,64,2.0,8.0,46,0.00,CLR,FEW,0.00,WeatherDisplay:10.37,2013-03-03 15:40:00,
2013-03-03 09:45:00,27.1,9.1,29.03,East,90,2.0,4.0,46,0.00,CLR,FEW,0.00,WeatherDisplay:10.37,2013-03-03 15:45:00,
2013-03-03 09:50:00,27.1,9.1,29.03,ENE,65,3.0,6.0,46,0.00,CLR,FEW,0.00,WeatherDisplay:10.37,2013-03-03 15:50:00,
2013-03-03 09:55:00,27.1,9.1,29.03,ENE,61,3.0,4.0,46,0.00,CLR,FEW,0.00,WeatherDisplay:10.37,2013-03-03 15:55:00,
2013-03-03 10:00:00,27.1,9.1,29.03,NE,46,3.0,6.0,46,0.00,CLR,FEW,0.00,WeatherDisplay:10.37,2013-03-03 16:00:00,
2013-03-03 10:05:00,27.1,9.1,29.03,NNE,23,1.0,5.0,46,0.00,CLR,FEW,0.00,WeatherDisplay:10.37,2013-03-03 16:05:00,
2013-03-03 10:10:00,27.3,9.2,29.03,SE,129,3.0,6.0,46,0.00,CLR,FEW,0.00,WeatherDisplay:10.37,2013-03-03 16:10:00,
2013-03-03 10:15:00,27.3,8.7,29.03,SE,143,3.0,5.0,45,0.00,CLR,FEW,0.00,WeatherDisplay:10.37,2013-03-03 16:15:00,
2013-03-03 10:20:00,27.3,8.7,29.03,ESE,119,2.0,6.0,45,0.00,CLR,FEW,0.00,WeatherDisplay:10.37,2013-03-03 16:20:00,
2013-03-03 10:25:00,27.3,8.7,29.03,ESE,119,3.0,5.0,45,0.00,CLR,FEW,0.00,WeatherDisplay:10.37,2013-03-03 16:25:00,
2013-03-03 10:30:00,27.3,8.7,29.03,ESE,116,3.0,4.0,45,0.00,CLR,FEW,0.00,WeatherDisplay:10.37,2013-03-03 16:30:00,
2013-03-03 10:35:00,27.3,8.7,29.03,ENE,76,5.0,6.0,45,0.00,CLR,FEW,0.00,WeatherDisplay:10.37,2013-03-03 16:35:00,
2013-03-03 10:40:00,27.3,9.2,29.03,SE,140,2.0,4.0,46,0.00,CLR,FEW,0.00,WeatherDisplay:10.37,2013-03-03 16:40:00,
2013-03-03 10:45:00,27.3,8.7,29.03,East,101,6.0,9.0,45,0.00,CLR,FEW,0.00,WeatherDisplay:10.37,2013-03-03 16:45:00,
2013-03-03 10:50:00,27.3,9.2,29.06,East,94,2.0,7.0,46,0.00,CLR,FEW,0.00,WeatherDisplay:10.37,2013-03-03 16:50:00,
2013-03-03 10:55:00,27.3,9.2,29.06,SE,138,1.0,4.0,46,0.00,CLR,FEW,0.00,WeatherDisplay:10.37,2013-03-03 16:55:00,
2013-03-03 11:00:00,16.2,7.1,29.41,NNE,22,1.0,2.0,67,0.00,CLR,FEW,0.00,WeatherDisplay:10.37,2013-03-03 17:00:00,
2013-03-03 11:05:00,27.3,9.2,29.06,ESE,109,3.0,5.0,46,0.00,CLR,FEW,0.00,WeatherDisplay:10.37,2013-03-03 17:05:00,
2013-03-03 11:10:00,27.3,9.2,29.06,SE,131,2.0,7.0,46,0.00,CLR,FEW,0.00,WeatherDisplay:10.37,2013-03-03 17:10:00,
2013-03-03 11:15:00,27.3,9.2,29.06,ESE,116,3.0,8.0,46,0.00,CLR,FEW,0.00,WeatherDisplay:10.37,2013-03-03 17:15:00,
2013-03-03 11:20:00,27.3,9.2,29.06,East,84,1.0,3.0,46,0.00,CLR,FEW,0.00,WeatherDisplay:10.37,2013-03-03 17:20:00,
2013-03-03 11:25:00,27.3,9.2,29.06,East,88,1.0,5.0,46,0.00,CLR,FEW,0.00,WeatherDisplay:10.37,2013-03-03 17:25:00,
2013-03-03 11:30:00,27.1,9.1,29.06,SSE,149,2.0,2.0,46,0.00,CLR,FEW,0.00,WeatherDisplay:10.37,2013-03-03 17:30:00,
2013-03-03 11:35:00,27.3,9.2,29.06,SE,133,3.0,6.0,46,0.00,CLR,FEW,0.00,WeatherDisplay:10.37,2013-03-03 17:35:00,
2013-03-03 11:40:00,27.3,9.2,29.06,ESE,113,2.0,6.0,46,0.00,CLR,FEW,0.00,WeatherDisplay:10.37,2013-03-03 17:40:00,
2013-03-03 11:45:00,27.3,9.2,29.06,SE,131,2.0,4.0,46,0.00,CLR,FEW,0.00,WeatherDisplay:10.37,2013-03-03 17:45:00,
2013-03-03 11:50:00,27.3,9.2,29.06,SE,141,3.0,5.0,46,0.00,CLR,FEW,0.00,WeatherDisplay:10.37,2013-03-03 17:50:00,
2013-03-03 11:55:00,27.1,9.1,29.06,ESE,123,2.0,4.0,46,0.00,CLR,FEW,0.00,WeatherDisplay:10.37,2013-03-03 17:55:00,
2013-03-03 12:00:00,27.1,9.1,29.06,ESE,115,3.0,4.0,46,0.00,CLR,FEW,0.00,WeatherDisplay:10.37,2013-03-03 18:00:00,
2013-03-03 12:05:00,27.1,9.1,29.06,ESE,121,5.0,6.0,46,0.00,CLR,FEW,0.00,WeatherDisplay:10.37,2013-03-03 18:05:00,
2013-03-03 12:10:00,27.1,9.1,29.06,SSE,166,5.0,5.0,46,0.00,CLR,FEW,0.00,WeatherDisplay:10.37,2013-03-03 18:10:00,
2013-03-03 12:15:00,27.1,9.1,29.06,South,170,3.0,4.0,46,0.00,CLR,FEW,0.00,WeatherDisplay:10.37,2013-03-03 18:15:00,
2013-03-03 12:20:00,27.1,9.1,29.06,ESE,108,2.0,4.0,46,0.00,CLR,FEW,0.00,WeatherDisplay:10.37,2013-03-03 18:20:00,
2013-03-03 12:25:00,27.1,9.1,29.06,East,89,3.0,5.0,46,0.00,CLR,FEW,0.00,WeatherDisplay:10.37,2013-03-03 18:25:00,
2013-03-03 12:30:00,27.1,9.1,29.06,SE,128,2.0,8.0,46,0.00,CLR,FEW,0.00,WeatherDisplay:10.37,2013-03-03 18:30:00,
2013-03-03 12:35:00,27.1,9.1,29.06,SE,141,3.0,6.0,46,0.00,CLR,FEW,0.00,WeatherDisplay:10.37,2013-03-03 18:35:00,
2013-03-03 12:40:00,27.1,9.1,29.06,SE,138,1.0,3.0,46,0.00,CLR,FEW,0.00,WeatherDisplay:10.37,2013-03-03 18:40:00,
2013-03-03 12:45:00,27.0,9.4,29.06,ESE,119,3.0,9.0,47,0.00,CLR,FEW,0.00,WeatherDisplay:10.37,2013-03-03 18:45:00,
2013-03-03 12:46:00,27.0,9.4,29.06,SE,140,2.0,2.0,47,0.00,,FEW,0.00,WeatherDisplay:10.37,2013-03-03 18:46:00,
2013-03-03 12:47:00,27.0,9.4,29.06,SE,140,2.0,0.0,47,0.00,,FEW,0.00,WeatherDisplay:10.37,2013-03-03 18:47:00,
2013-03-03 12:48:00,27.0,9.4,29.06,SE,140,2.0,0.0,47,0.00,,FEW,0.00,WeatherDisplay:10.37,2013-03-03 18:48:00,
2013-03-03 12:49:00,27.0,9.4,29.06,SE,140,2.0,0.0,47,0.00,,FEW,0.00,WeatherDisplay:10.37,2013-03-03 18:49:00,
2013-03-03 12:50:00,27.0,9.4,29.06,ESE,113,2.0,6.0,47,0.00,CLR,FEW,0.00,WeatherDisplay:10.37,2013-03-03 18:50:00,